Highgate, VT

2:17 PM EST on November 20, 2019 (GMT -0500)
Franklin County State

Weather History for KFSO - September, 2019

Change the Weather History Date:

Wednesday, September 11, 2019

  Actual Average (KPBG) Record (KPBG)
Temperature  
Mean Temperature 69 °F -  
Max Temperature 80 °F 70 °F 93 °F (2013)
Min Temperature 59 °F 51 °F 37 °F (2008)
Cooling Degree Days 4    
Growing Degree Days 19 (Base 50)    
Moisture  
Dew Point 66 °F    
Average Humidity 87    
Maximum Humidity 96    
Minimum Humidity 70    
Precipitation  
Precipitation 0.00 in - - ()
Sea Level Pressure  
Sea Level Pressure 30.03 in    
Wind  
Wind Speed 7 mph (SSW)    
Max Wind Speed 13 mph    
Max Gust Speed 20 mph    
Visibility 9 miles    
Events Rain    
Averages and records for this station are not official NWS values.
T = Trace of Precipitation, MM = Missing Value Source: NWS Daily Summary

Daily Weather History Graph

Daily Weather History Graph

Search for Another Location

Airport or City:

Astronomy

Sep. 11, 2019 Rise Set
Actual Time 6:26 AM EDT 7:11 PM EDT
Civil Twilight 5:56 AM EDT 7:40 PM EDT
Nautical Twilight 5:21 AM EDT 8:16 PM EDT
Astronomical Twilight 4:44 AM EDT 8:52 PM EDT
Moon 6:30 PM EDT (9/11) 3:36 AM EDT (9/11)
Length of Visible Light 13h 44m
Length of Day
12h 45m
Waxing Gibbous, 94% of the Moon is Illuminated
Sep 11
Waxing Gibbous
Sep 14
Full
Sep 21
Last Quarter
Sep 28
New
Oct 5
First Quarter

Hourly Weather History & Observations

Time (EDT) Temp. Dew Point Humidity Pressure Visibility Wind Dir Wind Speed Gust Speed Precip Events Conditions
12:15 AM 69.3 °F 67.3 °F 93% 30.06 in 10.0 mi South 6.9 mph - N/A   Overcast
12:35 AM 69.3 °F 67.3 °F 93% 30.05 in 10.0 mi South 6.9 mph 16.1 mph N/A   Overcast
12:55 AM 69.4 °F 67.3 °F 93% 30.04 in 10.0 mi South 8.1 mph - N/A   Mostly Cloudy
1:16 AM 69.3 °F 67.1 °F 93% 30.04 in 10.0 mi South 8.1 mph - N/A   Scattered Clouds
1:35 AM 69.3 °F 67.1 °F 93% 30.03 in 10.0 mi South 8.1 mph - N/A   Clear
1:56 AM 69.4 °F 67.1 °F 92% 30.03 in 10.0 mi South 6.9 mph - N/A   Clear
2:15 AM 69.6 °F 67.1 °F 92% 30.02 in 10.0 mi South 9.2 mph 16.1 mph N/A   Scattered Clouds
2:35 AM 69.6 °F 67.1 °F 92% 30.00 in 10.0 mi South 8.1 mph - N/A   Clear
2:56 AM 70.0 °F 67.1 °F 91% 30.00 in 10.0 mi South 10.4 mph 17.3 mph N/A   Scattered Clouds
3:15 AM 70.3 °F 67.1 °F 89% 30.00 in 10.0 mi South 8.1 mph - N/A   Scattered Clouds
3:36 AM 70.7 °F 67.1 °F 88% 30.00 in 10.0 mi South 8.1 mph - N/A   Scattered Clouds
3:56 AM 70.7 °F 67.1 °F 88% 30.00 in 10.0 mi South 9.2 mph - N/A   Scattered Clouds
4:36 AM 69.8 °F 67.5 °F 92% 30.01 in 7.0 mi South 6.9 mph 16.1 mph N/A Rain Rain
4:55 AM 69.1 °F 68.0 °F 96% 30.01 in 5.0 mi South 9.2 mph - N/A Rain Rain
5:16 AM 69.1 °F 67.8 °F 96% 30.01 in 3.0 mi South 10.4 mph - N/A Rain Rain
5:35 AM 68.9 °F 67.6 °F 96% 30.01 in 4.0 mi South 5.8 mph - N/A Rain Light Rain
5:55 AM 68.9 °F 67.6 °F 96% 30.00 in 5.0 mi South 9.2 mph - N/A Rain Light Rain
6:15 AM 68.9 °F 67.6 °F 96% 30.00 in 10.0 mi South 6.9 mph - N/A   Overcast
6:35 AM 68.9 °F 67.6 °F 96% 30.00 in 10.0 mi South 9.2 mph 17.3 mph N/A   Overcast
6:56 AM 68.9 °F 67.6 °F 96% 30.00 in 10.0 mi SSW 5.8 mph - N/A   Overcast
7:16 AM 69.1 °F 68.0 °F 96% 30.01 in 4.0 mi SSW 6.9 mph - N/A Rain Heavy Rain
7:35 AM 69.1 °F 68.0 °F 96% 30.01 in 10.0 mi SSW 8.1 mph - N/A   Overcast
7:55 AM 69.3 °F 68.0 °F 96% 30.01 in 10.0 mi SSW 5.8 mph - N/A   Overcast
8:15 AM 69.3 °F 68.0 °F 96% 30.01 in 10.0 mi SSW 9.2 mph - N/A   Overcast
8:36 AM 69.4 °F 68.0 °F 95% 30.02 in 10.0 mi SSW 5.8 mph - N/A   Overcast
8:56 AM 69.4 °F 68.2 °F 96% 30.02 in 10.0 mi SSW 6.9 mph - N/A   Overcast
9:15 AM 69.6 °F 68.2 °F 95% 30.01 in 10.0 mi South 6.9 mph - N/A   Overcast
9:36 AM 69.8 °F 68.4 °F 95% 30.01 in 10.0 mi SSW 5.8 mph - N/A   Overcast
9:55 AM 69.8 °F 68.4 °F 95% 30.02 in 7.0 mi SSW 4.6 mph - N/A Rain Rain
10:16 AM 69.8 °F 68.4 °F 95% 30.02 in 4.0 mi Calm Calm - N/A Rain Light Rain
10:36 AM 69.8 °F 68.4 °F 95% 30.02 in 1.5 mi SW 3.5 mph - N/A Rain Heavy Rain
10:56 AM 70.7 °F 69.3 °F 95% 30.01 in 3.0 mi SSW 4.6 mph - N/A   Overcast
11:15 AM 70.9 °F 69.8 °F 96% 30.00 in 7.0 mi SSW 3.5 mph - N/A   Overcast
11:35 AM 70.7 °F 69.4 °F 96% 30.00 in 7.0 mi SSW 3.5 mph - N/A   Overcast
11:55 AM 70.9 °F 69.6 °F 96% 30.00 in 10.0 mi SSW 3.5 mph - N/A   Overcast
12:15 PM 71.1 °F 69.8 °F 96% 30.00 in 10.0 mi SSW 3.5 mph - N/A   Overcast
12:35 PM 73.8 °F 72.3 °F 95% 30.00 in 10.0 mi WSW 5.8 mph - N/A   Mostly Cloudy
12:56 PM 74.5 °F 71.8 °F 91% 30.00 in 10.0 mi WSW 4.6 mph - N/A   Mostly Cloudy
1:15 PM 75.2 °F 70.9 °F 86% 30.00 in 10.0 mi Calm Calm - N/A   Overcast
1:35 PM 75.2 °F 71.2 °F 87% 30.00 in 10.0 mi Calm Calm - N/A   Overcast
1:55 PM 76.8 °F 71.2 °F 83% 30.00 in 10.0 mi SW 4.6 mph - N/A   Mostly Cloudy
2:36 PM 79.9 °F 69.8 °F 71% 29.98 in 10.0 mi WSW 4.6 mph - N/A   Overcast
2:55 PM 76.8 °F 69.3 °F 77% 30.00 in 4.0 mi WNW 3.5 mph - N/A Rain Heavy Rain
3:16 PM 74.1 °F 71.4 °F 91% 29.99 in 10.0 mi Calm Calm - N/A   Overcast
3:35 PM 74.1 °F 71.6 °F 92% 29.99 in 10.0 mi Calm Calm - N/A   Overcast
3:56 PM 75.0 °F 70.5 °F 86% 29.99 in 10.0 mi Calm Calm - N/A   Mostly Cloudy
4:15 PM 75.6 °F 70.5 °F 84% 29.99 in 10.0 mi Calm Calm - N/A   Mostly Cloudy
4:36 PM 77.7 °F 70.3 °F 78% 29.99 in 10.0 mi WSW 3.5 mph - N/A   Scattered Clouds
4:55 PM 77.4 °F 70.7 °F 80% 29.99 in 10.0 mi WSW 3.5 mph - N/A   Scattered Clouds
5:16 PM 76.8 °F 70.3 °F 80% 29.98 in 10.0 mi SSW 4.6 mph - N/A   Scattered Clouds
5:35 PM 77.0 °F 70.9 °F 81% 29.98 in 10.0 mi Calm Calm - N/A   Scattered Clouds
5:55 PM 77.0 °F 71.1 °F 82% 29.98 in 10.0 mi North 3.5 mph - N/A   Mostly Cloudy
6:15 PM 76.6 °F 66.0 °F 70% 29.99 in 10.0 mi North 9.2 mph 16.1 mph N/A   Overcast
6:36 PM 74.7 °F 66.0 °F 74% 30.00 in 10.0 mi North 9.2 mph - N/A   Overcast
6:55 PM 72.9 °F 62.8 °F 71% 30.00 in 10.0 mi North 11.5 mph 18.4 mph N/A   Overcast
7:16 PM 72.1 °F 62.2 °F 71% 30.02 in 10.0 mi North 12.7 mph 17.3 mph N/A   Overcast
7:35 PM 70.3 °F 63.5 °F 79% 30.04 in 10.0 mi NNE 6.9 mph - N/A   Overcast
7:55 PM 68.0 °F 61.0 °F 78% 30.05 in 10.0 mi North 12.7 mph 19.6 mph N/A   Overcast
8:16 PM 66.2 °F 58.1 °F 75% 30.08 in 10.0 mi North 6.9 mph - N/A   Overcast
8:36 PM 65.5 °F 56.5 °F 73% 30.09 in 10.0 mi North 8.1 mph - N/A   Overcast
8:56 PM 65.1 °F 56.3 °F 73% 30.10 in 10.0 mi North 8.1 mph 16.1 mph N/A   Overcast
9:15 PM 64.6 °F 56.5 °F 75% 30.10 in 10.0 mi NNE 8.1 mph - N/A   Overcast
9:36 PM 63.9 °F 56.1 °F 76% 30.11 in 10.0 mi North 10.4 mph - N/A   Overcast
9:56 PM 62.2 °F 54.0 °F 74% 30.13 in 10.0 mi North 12.7 mph 19.6 mph N/A   Overcast
10:15 PM 61.2 °F 52.5 °F 73% 30.13 in 10.0 mi North 11.5 mph 18.4 mph N/A   Overcast
10:36 PM 60.4 °F 51.1 °F 71% 30.13 in 10.0 mi North 10.4 mph - N/A   Overcast
10:55 PM 60.1 °F 50.7 °F 71% 30.12 in 10.0 mi NNE 9.2 mph 17.3 mph N/A   Overcast
11:16 PM 59.9 °F 50.9 °F 72% 30.12 in 10.0 mi North 6.9 mph - N/A   Overcast
11:35 PM 59.5 °F 51.1 °F 74% 30.12 in 10.0 mi North 8.1 mph - N/A   Overcast
11:55 PM 59.4 °F 51.3 °F 75% 30.13 in 10.0 mi North 4.6 mph - N/A   Overcast